Tracking 30923 objects as of 1-Jul-2025
HD Live streaming from Space Station
objects crossing your sky now

DODECAPOLE 2 DEB

Track DODECAPOLE 2 DEB now!
10-day predictions


NORAD ID: 41734
Int'l Code: 2016-051D
Perigee: 820.4 km
Apogee: 865.7 km
Inclination: 90.0 °
Period: 101.6 minutes
Semi major axis: 7214 km
RCS: Unknown
Launch date: August 15, 2016
Source: United States (US)
Launch site: Jiuquan Satellite Launch Center, China (JSC)

Note: This is SATELLITE DEBRIS
Your satellite tracking list
SL-8 DEB
Track 1 satellite(s)




NASA's NSSDC Master Catalog

Two Line Element Set (TLE):
1 41734U 65065U   25181.56417092  .00003455  00000-0  17103-2 0  9993
2 41734  90.0413  21.1110 0031350 170.4565 189.7226 14.16883482486440
Source of the keplerian elements: AFSPC